Find Starlink 1973

NORAD ID: 47628 Int'l Des: 2021-012 Owner: SPXS Country: US Constellation: starlink operational
LEOCIRCULAR

Live-Position

3D-Globus wird geladen...

Über Starlink 1973

Beschreibung wird geladen...

Nächste Überflüge

Passes for default location (London). Set your location on the main map for personalized predictions.

Höhenverlauf

Loading altitude history...

Zweizeiliger Elementsatz

1 47628U 21012J 26123.83670701 .00001962 00000-0 74985-4 0 9994
2 47628 53.1585 168.6028 0001141 92.0096 268.1036 15.31699427288539
Epoch: 3. Mai 2026 • Age: 14 hours

Aktueller Status

Höhe 475.6 km
Geschwindigkeit 7.63 km/s
Subsatellitenpunkt 48.74°N, 155.54°W
Startdatum 16. Feb. 2021
Alter 5.2 years
Typ internet

Technische Details

Klassifizierung Payload
Masse 260.00 kg
Trockenmasse 248.00 kg
Gesamtmasse 260.00 kg
Länge 0.20 m
Durchmesser 2.80 m
Spannweite 9.00 m
Form Box + pan
Hersteller SPXS
Bus-Typ Starlink
Phasenstatus In Orbit
Besitzer/Staat SPXS/US

Most Searched